Weather History for Ovda Intl Airport, Israel

Change the Weather History Date:

Wednesday, October 24, 2012

  Actual Average Record
Temperature  
Mean Temperature 71 °F -  
Max Temperature 80 °F 79 °F 91 °F (2003)
Min Temperature 62 °F 58 °F 53 °F (2000)
Cooling Degree Days 6    
Growing Degree Days 21 (Base 50)    
Moisture  
Dew Point 56 °F    
Average Humidity 60    
Maximum Humidity 94    
Minimum Humidity 34    
Precipitation  
Precipitation 0.00 in - - ()
Sea Level Pressure  
Sea Level Pressure 29.92 in    
Wind  
Wind Speed 3 mph ()    
Max Wind Speed 9 mph    
Max Gust Speed -    
Visibility 6.2 miles    
Events      
Averages and records for this station are not official NWS values.
T = Trace of Precipitation, MM = Missing Value Source: Averaged Metar Reports

Daily Weather History Graph

Daily Weather History Graph

Search for Another Location

Airport:

Trip Planner

Search our weather history database for the weather conditions in past years. The results will help you decide how hot, cold, wet, or windy it might be!

Date:

Astronomy

Oct. 24, 2012 Rise Set
Actual Time 5:48 AM IST 5:00 PM IST
Civil Twilight 5:23 AM IST 5:24 PM IST
Nautical Twilight 4:55 AM IST 5:52 PM IST
Astronomical Twilight 4:28 AM IST 6:20 PM IST
Moon 1:45 PM IST (10/24) 12:44 AM IST (10/24)
Length of Visible Light 12h 00m
Length of Day
11h 11m
Waxing Gibbous, 73% of the Moon is Illuminated
Oct 24
Waxing Gibbous
Oct 29
Full
Nov 7
Last Quarter
Nov 14
New
Nov 20
First Quarter

Hourly Weather History & Observations

Time (IST) Temp. Heat Index Dew Point Humidity Pressure Visibility Wind Dir Wind Speed Gust Speed Precip Events Conditions
12:50 AM 68.0 °F - 53.6 °F 60% 29.98 in - Variable 2.3 mph - N/A   Clear
1:50 AM 66.2 °F - 55.4 °F 68% 29.98 in - Calm Calm - N/A   Clear
2:50 AM 66.2 °F - 57.2 °F 73% 29.95 in - Variable 2.3 mph - N/A   Clear
3:50 AM 64.4 °F - 59.0 °F 83% 29.95 in - Calm Calm - N/A   Clear
4:50 AM 62.6 °F - 60.8 °F 94% 29.95 in - South 3.5 mph - N/A   Clear
5:50 AM 62.6 °F - 60.8 °F 94% 29.95 in - WSW 3.5 mph - N/A   Clear
6:50 AM 64.4 °F - 60.8 °F 88% 29.95 in - WSW 3.5 mph - N/A   Clear
7:50 AM 68.0 °F - 57.2 °F 68% 29.95 in - Variable 1.2 mph - N/A   Clear
8:50 AM 69.8 °F - 59.0 °F 68% 29.95 in - NNE 9.2 mph - N/A   Clear
9:50 AM 71.6 °F - 57.2 °F 60% 29.95 in - North 4.6 mph - N/A   Clear
10:50 AM 75.2 °F - 57.2 °F 53% 29.92 in - NE 4.6 mph - N/A   Clear
11:50 AM 75.2 °F - 55.4 °F 50% 29.92 in - ENE 6.9 mph - N/A   Clear
12:50 PM 78.8 °F - 57.2 °F 47% 29.89 in 6.2 mi ENE 4.6 mph - N/A   Mostly Cloudy
1:50 PM 80.6 °F 80.5 °F 55.4 °F 42% 29.86 in 6.2 mi ENE 5.8 mph - N/A   Mostly Cloudy
2:50 PM 80.6 °F 80.3 °F 53.6 °F 39% 29.86 in 6.2 mi NNE 4.6 mph - N/A   Mostly Cloudy
3:50 PM 80.6 °F - 50.0 °F 34% 29.86 in - NE 5.8 mph - N/A   Clear
4:50 PM 78.8 °F - 53.6 °F 42% 29.86 in - ENE 4.6 mph - N/A   Clear
5:50 PM 77.0 °F - 55.4 °F 47% 29.86 in 6.2 mi NE 3.5 mph - N/A   Mostly Cloudy
6:50 PM 75.2 °F - 55.4 °F 50% 29.89 in 6.2 mi North 4.6 mph - N/A   Scattered Clouds
7:50 PM 75.2 °F - 51.8 °F 44% 29.92 in 6.2 mi North 8.1 mph - N/A   Partly Cloudy
8:50 PM 73.4 °F - 53.6 °F 50% 29.92 in 6.2 mi North 8.1 mph - N/A   Partly Cloudy
9:50 PM 71.6 °F - 55.4 °F 57% 29.92 in 6.2 mi NNE 5.8 mph - N/A   Partly Cloudy
10:50 PM 68.0 °F - 55.4 °F 64% 29.92 in 6.2 mi Variable 1.2 mph - N/A   Partly Cloudy
11:50 PM 68.0 °F - 53.6 °F 60% 29.92 in - Variable 1.2 mph - N/A   Clear